Ruidoso, NM

7:51 PM MDT on May 27, 2017 (GMT -0600)
Sierra Blanca Regional

Weather History for KSRR - January, 2014

Change the Weather History Date:

Sunday, January 12, 2014

  Actual Average Record
Temperature  
Mean Temperature 44 °F -  
Max Temperature 57 °F 48 °F 62 °F (2000)
Min Temperature 32 °F 28 °F 3 °F (1997)
Degree Days  
Heating Degree Days 20    
Moisture  
Dew Point 10 °F    
Average Humidity 25    
Maximum Humidity 41    
Minimum Humidity 9    
Precipitation  
Precipitation 0.00 in - - ()
Sea Level Pressure  
Sea Level Pressure 30.00 in    
Wind  
Wind Speed 15 mph (West)    
Max Wind Speed 34 mph    
Max Gust Speed 48 mph    
Visibility 10 miles    
Events      
Averages and records for this station are not official NWS values.
T = Trace of Precipitation, MM = Missing Value Source: NWS Daily Summary

Daily Weather History Graph

Daily Weather History Graph

Search for Another Location

Airport or City:

Trip Planner

Search our weather history database for the weather conditions in past years. The results will help you decide how hot, cold, wet, or windy it might be!

Date:

Astronomy

Jan. 12, 2014 Rise Set
Actual Time 7:06 AM MST 5:14 PM MST
Civil Twilight 6:39 AM MST 5:41 PM MST
Nautical Twilight 6:08 AM MST 6:12 PM MST
Astronomical Twilight 5:38 AM MST 6:42 PM MST
Moon 2:43 PM MST (1/12) 4:08 AM MST (1/12)
Length of Visible Light 11h 02m
Length of Day
10h 07m
Waxing Gibbous, 90% of the Moon is Illuminated
Jan 12
Waxing Gibbous
Jan 15
Full
Jan 23
Last Quarter
Jan 30
New
Feb 6
First Quarter

Hourly Weather History & Observations

Time (MST) Temp. Windchill Dew Point Humidity Pressure Visibility Wind Dir Wind Speed Gust Speed Precip Events Conditions
12:15 AM 39.2 °F 35.0 °F 14.0 °F 36% 30.07 in 10.0 mi WSW 5.8 mph - N/A   Clear
12:35 AM 41.0 °F 36.4 °F 14.0 °F 33% 30.06 in 10.0 mi WNW 6.9 mph - N/A   Clear
12:55 AM 41.0 °F 35.8 °F 14.0 °F 33% 30.06 in 10.0 mi West 8.1 mph - N/A   Clear
1:15 AM 41.0 °F 38.0 °F 14.0 °F 33% 30.05 in 10.0 mi West 4.6 mph - N/A   Clear
1:35 AM 44.6 °F 42.2 °F 14.0 °F 29% 30.04 in 10.0 mi West 4.6 mph - N/A   Clear
1:55 AM 42.8 °F 39.3 °F 14.0 °F 31% 30.04 in 10.0 mi West 5.8 mph - N/A   Clear
2:15 AM 42.8 °F 34.3 °F 14.0 °F 31% 30.03 in 10.0 mi SW 19.6 mph 25.3 mph N/A   Clear
2:35 AM 44.6 °F 36.1 °F 14.0 °F 29% 30.03 in 10.0 mi SW 21.9 mph 26.5 mph N/A   Clear
2:55 AM 44.6 °F 36.6 °F 14.0 °F 29% 30.03 in 10.0 mi SSW 19.6 mph - N/A   Clear
3:15 AM 44.6 °F 36.9 °F 14.0 °F 29% 30.02 in 10.0 mi SSW 18.4 mph 25.3 mph N/A   Clear
3:35 AM 44.6 °F 37.2 °F 14.0 °F 29% 30.02 in 10.0 mi SSW 17.3 mph - N/A   Clear
3:55 AM 44.6 °F 37.8 °F 14.0 °F 29% 30.01 in 10.0 mi SSW 15.0 mph - N/A   Clear
4:15 AM 44.6 °F 38.4 °F 14.0 °F 29% 30.01 in 10.0 mi SW 12.7 mph 21.9 mph N/A   Clear
4:35 AM 44.6 °F 38.8 °F 14.0 °F 29% 30.00 in 10.0 mi WSW 11.5 mph 21.9 mph N/A   Clear
4:55 AM 42.8 °F 35.4 °F 14.0 °F 31% 29.98 in 10.0 mi SW 15.0 mph 23.0 mph N/A   Clear
5:15 AM 44.6 °F 41.4 °F 12.2 °F 27% 29.99 in 10.0 mi WNW 5.8 mph - N/A   Clear
5:35 AM 41.0 °F 33.1 °F 12.2 °F 31% 29.98 in 10.0 mi WSW 15.0 mph 24.2 mph N/A   Clear
5:55 AM 44.6 °F 34.6 °F 14.0 °F 29% 29.96 in 10.0 mi SW 31.1 mph 40.3 mph N/A   Clear
6:15 AM 42.8 °F 33.3 °F 14.0 °F 31% 29.97 in 10.0 mi SSW 24.2 mph 38.0 mph N/A   Clear
6:35 AM 41.0 °F 35.2 °F 14.0 °F 33% 29.98 in 10.0 mi SW 9.2 mph 25.3 mph N/A   Clear
6:55 AM 41.0 °F 33.5 °F 14.0 °F 33% 29.98 in 10.0 mi SW 13.8 mph - N/A   Clear
7:15 AM 42.8 °F 35.4 °F 14.0 °F 31% 29.98 in 10.0 mi SW 15.0 mph 26.5 mph N/A   Clear
7:35 AM 42.8 °F 39.3 °F 15.8 °F 34% 29.98 in 10.0 mi West 5.8 mph 23.0 mph N/A   Clear
7:55 AM 42.8 °F 41.1 °F 14.0 °F 31% 29.99 in 10.0 mi WSW 3.5 mph - N/A   Clear
8:15 AM 44.6 °F 42.2 °F 15.8 °F 31% 29.99 in 10.0 mi West 4.6 mph - N/A   Clear
8:35 AM 44.6 °F 41.4 °F 14.0 °F 29% 29.99 in 10.0 mi WNW 5.8 mph - N/A   Clear
8:55 AM 48.2 °F - 14.0 °F 25% 30.00 in 10.0 mi West 11.5 mph - N/A   Clear
9:15 AM 46.4 °F 41.5 °F 14.0 °F 27% 30.00 in 10.0 mi West 10.4 mph 17.3 mph N/A   Clear
9:35 AM 46.4 °F 40.7 °F 14.0 °F 27% 30.01 in 10.0 mi WNW 12.7 mph 21.9 mph N/A   Clear
9:55 AM 53.6 °F - 8.6 °F 16% 30.00 in 10.0 mi West 17.3 mph 31.1 mph N/A   Clear
10:15 AM 53.6 °F - 8.6 °F 16% 29.99 in 10.0 mi West 24.2 mph 36.8 mph N/A   Clear
10:35 AM 53.6 °F - 8.6 °F 16% 29.99 in 10.0 mi West 25.3 mph 32.2 mph N/A   Clear
10:55 AM 53.6 °F - 8.6 °F 16% 29.98 in 10.0 mi West 23.0 mph 29.9 mph N/A   Clear
11:15 AM 55.4 °F - 8.6 °F 15% 29.97 in 10.0 mi West 21.9 mph 31.1 mph N/A   Clear
11:35 AM 57.2 °F - 8.6 °F 14% 29.96 in 10.0 mi West 18.4 mph 40.3 mph N/A   Clear
11:55 AM 55.4 °F - 8.6 °F 15% 29.93 in 10.0 mi West 20.7 mph 28.8 mph N/A   Clear
12:15 PM 55.4 °F - 10.4 °F 17% 29.91 in 10.0 mi West 25.3 mph 33.4 mph N/A   Clear
12:35 PM 55.4 °F - 8.6 °F 15% 29.89 in 10.0 mi West 31.1 mph 44.9 mph N/A   Clear
12:55 PM 55.4 °F - 10.4 °F 17% 29.88 in 10.0 mi West 32.2 mph 43.7 mph N/A   Clear
1:15 PM 53.6 °F - 10.4 °F 18% 29.88 in 10.0 mi West 27.6 mph 47.2 mph N/A   Clear
1:35 PM 53.6 °F - 10.4 °F 18% 29.88 in 10.0 mi West 31.1 mph 41.4 mph N/A   Clear
1:55 PM 53.6 °F - 10.4 °F 18% 29.90 in 10.0 mi West 21.9 mph 48.3 mph N/A   Clear
2:15 PM 53.6 °F - 10.4 °F 18% 29.91 in 10.0 mi West 24.2 mph 38.0 mph N/A   Clear
2:35 PM 55.4 °F - 10.4 °F 17% 29.91 in 10.0 mi West 20.7 mph 35.7 mph N/A   Clear
2:55 PM 53.6 °F - 10.4 °F 18% 29.91 in 10.0 mi West 25.3 mph 47.2 mph N/A   Clear
3:15 PM 53.6 °F - 10.4 °F 18% 29.91 in 10.0 mi West 28.8 mph 46.0 mph N/A   Clear
3:35 PM 53.6 °F - 10.4 °F 18% 29.91 in 10.0 mi West 28.8 mph 38.0 mph N/A   Clear
3:55 PM 53.6 °F - 8.6 °F 16% 29.91 in 10.0 mi West 34.5 mph 46.0 mph N/A   Clear
4:15 PM 53.6 °F - 10.4 °F 18% 29.91 in 10.0 mi West 25.3 mph 35.7 mph N/A   Clear
4:35 PM 51.8 °F - 8.6 °F 18% 29.91 in 10.0 mi West 26.5 mph 36.8 mph N/A   Clear
4:55 PM 50.0 °F - 8.6 °F 19% 29.93 in 10.0 mi West 13.8 mph 36.8 mph N/A   Clear
5:15 PM 50.0 °F - 5.0 °F 16% 29.94 in 10.0 mi WNW 29.9 mph 44.9 mph N/A   Clear
5:35 PM 50.0 °F - -7.6 °F 9% 29.96 in 10.0 mi WNW 20.7 mph 41.4 mph N/A   Clear
5:55 PM 50.0 °F - -7.6 °F 9% 29.97 in 10.0 mi WNW 23.0 mph 41.4 mph N/A   Clear
6:15 PM 48.2 °F - -7.6 °F 10% 29.97 in 10.0 mi NW 18.4 mph 41.4 mph N/A   Clear
6:35 PM 48.2 °F - -5.8 °F 10% 29.98 in 10.0 mi NW 26.5 mph 33.4 mph N/A   Clear
6:55 PM 46.4 °F 38.7 °F -0.4 °F 14% 30.00 in 10.0 mi NW 20.7 mph 44.9 mph N/A   Clear
7:15 PM 44.6 °F 35.3 °F 5.0 °F 20% 30.01 in 10.0 mi NW 26.5 mph 44.9 mph N/A   Clear
7:35 PM 44.6 °F 35.7 °F 5.0 °F 20% 30.03 in 10.0 mi WNW 24.2 mph 47.2 mph N/A   Clear
7:55 PM 41.0 °F 31.1 °F 12.2 °F 31% 30.05 in 10.0 mi NW 23.0 mph 38.0 mph N/A   Clear
8:15 PM 37.4 °F 26.9 °F 15.8 °F 41% 30.06 in 10.0 mi NW 20.7 mph 35.7 mph N/A   Clear
8:35 PM 35.6 °F 24.0 °F 14.0 °F 41% 30.07 in 10.0 mi WNW 23.0 mph 31.1 mph N/A   Clear
8:55 PM 35.6 °F 24.8 °F 14.0 °F 41% 30.09 in 10.0 mi WNW 19.6 mph 31.1 mph N/A   Clear
9:15 PM 35.6 °F 25.2 °F 14.0 °F 41% 30.09 in 10.0 mi WNW 18.4 mph 28.8 mph N/A   Clear
9:35 PM 35.6 °F 24.2 °F 10.4 °F 35% 30.10 in 10.0 mi NW 21.9 mph 31.1 mph N/A   Clear
9:55 PM 35.6 °F 24.2 °F 10.4 °F 35% 30.11 in 10.0 mi NW 21.9 mph 32.2 mph N/A   Clear
10:15 PM 33.8 °F 21.9 °F 8.6 °F 35% 30.11 in 10.0 mi WNW 21.9 mph 31.1 mph N/A   Clear
10:35 PM 33.8 °F 22.2 °F 6.8 °F 32% 30.12 in 10.0 mi NW 20.7 mph 29.9 mph N/A   Clear
10:55 PM 32.0 °F 20.8 °F 6.8 °F 35% 30.12 in 10.0 mi NW 17.3 mph 28.8 mph N/A   Clear
11:15 PM 32.0 °F 19.5 °F 5.0 °F 32% 30.12 in 10.0 mi NW 21.9 mph 31.1 mph N/A   Clear
11:35 PM 32.0 °F 20.5 °F 5.0 °F 32% 30.13 in 10.0 mi NW 18.4 mph 31.1 mph N/A   Clear
11:55 PM 32.0 °F 19.8 °F 1.4 °F 27% 30.13 in 10.0 mi NW 20.7 mph 32.2 mph N/A   Clear